Погода в Цвайбрюккене

Германия     49°14′57″N   7°22′13″E
темп.,
°C
ветер,
м/с
пор.,
м/с
влажн.,
%
обл.,
%
осадки,
мм/ч
давл.,
гПа
погр.,
м
17 апреля, сб
сб1723:00+1всв249080 0.0 102672
02:000ссв229387 0.0 102522
05:000ссв229398 0.0 102418
08:00+3св138180 0.0 1024118
11:00+8св45605 0.0 10231179
14:00+10св56435 0.0 10211653
17:00+9св565869 0.0 10211263
20:00+6всв4678100 0.0 1022504
18 апреля, вс
вс1823:00+3св229292 0.0 102334
02:00+5ссв1183100 0.0 102237
05:00+3с118880 0.0 102111
08:00+5ссв258591 0.0 1022476
11:00+7ссв347697 0.0 1021708
14:00+8ссв347798 0.1 1021923
17:00+7ссв348197 0.2 1021578
20:00+7с118430 0.3 102112
19 апреля, пн
пн1923:00+6зюз118690 0.0 102110
02:00+5зюз1189100 0.0 102124
05:00+5зюз119198 0.0 102023
08:00+6юз1292100 0.0 102062
11:00+8зюз2281100 0.0 1020417
14:00+11зюз226753 0.1 1019934
17:00+12ссз126699 1.3 1017873
20:00+9в118281 1.9 101810
20 апреля, вт
вт2023:00+6в11885 0.0 101810
02:00+4всв11906 0.0 101810
05:00+4св11927 0.0 101810
08:00+6всв11885 0.0 101865
11:00+11в12695 0.0 1017806
14:00+13в225968 0.8 10161287
17:00+14юз115492 0.4 1014753
20:00+11ссз227472 0.7 101517
21 апреля, ср
ср2123:00+7св11845 0.0 101710
02:00+5с11895 0.0 101710
05:00+5с11905 0.0 101710
08:00+7сз1185100 0.0 101859
11:00+8ссв1188100 0.3 1019106
14:00+13сз4563100 0.8 10181471
17:00+11ссз4766100 0.1 1018626
20:00+8с377999 0.2 1020250